When you browse on this site, cookies collect data to enhance your experience and personalize the content and advertising you see.
Visit our Privacy Policy to learn more. By continuing to use the site, you agree to this use of cookies and data.
  • In Hungary
  • List of Countries
  • For 7 days
  • Water Temperature
  • Satellite Maps
  • Weather Map
  • News
  • Weather Widgets
  • user-avatar
    Login

    Hourly Weather Paicandu

    Today, 18 November, Sunday

    Time Temperature Precipitation Wind Pressure Humidity
    00:00 +25°C° 0 mm 3 mps 718 mmHg 84%
    01:00 +25°C° 0 mm 3 mps 717 mmHg 85%
    02:00 +25°C° 0 mm 3 mps 717 mmHg 86%
    03:00 +25°C° 0 mm 3 mps 716 mmHg 86%
    04:00 +24°C° 0 mm 3 mps 716 mmHg 87%
    05:00 +24°C° 0 mm 3 mps 716 mmHg 88%
    06:00 +24°C° 0 mm 3 mps 716 mmHg 89%
    07:00 +26°C° 0 mm 3 mps 717 mmHg 83%
    08:00 +27°C° 0 mm 4 mps 717 mmHg 77%
    09:00 +29°C° 0 mm 5 mps 718 mmHg 71%
    10:00 +29°C° 1.4 mm 4 mps 717 mmHg 70%
    11:00 +30°C° 1.4 mm 3 mps 717 mmHg 69%
    12:00 +30°C° 1.4 mm 3 mps 717 mmHg 68%
    13:00 +30°C° 2.6 mm 3 mps 717 mmHg 70%
    14:00 +29°C° 2.6 mm 2 mps 717 mmHg 72%
    15:00 +29°C° 2.6 mm 2 mps 716 mmHg 74%
    16:00 +27°C° 1.9 mm 3 mps 716 mmHg 79%
    17:00 +26°C° 1.9 mm 3 mps 716 mmHg 84%
    18:00 +25°C° 1.9 mm 4 mps 716 mmHg 89%
    19:00 +23°C° 0.2 mm 4 mps 717 mmHg 89%
    20:00 +22°C° 0.2 mm 4 mps 717 mmHg 89%
    21:00 +21°C° 0.2 mm 4 mps 717 mmHg 88%
    22:00 +21°C° 0 mm 4 mps 717 mmHg 88%
    23:00 +21°C° 0 mm 3 mps 717 mmHg 88%

    Tomorrow, 19 November, Monday

    Time Temperature Precipitation Wind Pressure Humidity
    00:00 +21°C° 0 mm 3 mps 716 mmHg 88%
    01:00 +21°C° 0 mm 3 mps 716 mmHg 89%
    02:00 +21°C° 0 mm 3 mps 716 mmHg 89%
    03:00 +20°C° 0 mm 2 mps 716 mmHg 89%
    04:00 +21°C° 0.1 mm 3 mps 716 mmHg 89%
    05:00 +21°C° 0.1 mm 3 mps 716 mmHg 89%
    06:00 +21°C° 0.1 mm 3 mps 717 mmHg 89%
    07:00 +21°C° 0.1 mm 3 mps 717 mmHg 87%
    08:00 +22°C° 0.1 mm 4 mps 718 mmHg 85%
    09:00 +23°C° 0.1 mm 4 mps 718 mmHg 84%
    10:00 +23°C° 0 mm 4 mps 718 mmHg 81%
    11:00 +25°C° 0 mm 5 mps 718 mmHg 79%
    12:00 +25°C° 0 mm 5 mps 718 mmHg 76%
    13:00 +26°C° 0 mm 5 mps 718 mmHg 72%
    14:00 +27°C° 0 mm 5 mps 717 mmHg 69%
    15:00 +28°C° 0 mm 5 mps 717 mmHg 65%
    16:00 +27°C° 0 mm 5 mps 717 mmHg 67%
    17:00 +26°C° 0 mm 4 mps 717 mmHg 69%
    18:00 +26°C° 0 mm 4 mps 717 mmHg 71%
    19:00 +25°C° 0 mm 4 mps 717 mmHg 73%
    20:00 +22°C° 0 mm 4 mps 718 mmHg 74%
    21:00 +21°C° 0 mm 4 mps 718 mmHg 75%
    22:00 +21°C° 0 mm 4 mps 718 mmHg 75%
    23:00 +20°C° 0 mm 4 mps 719 mmHg 76%

    Day after tomorrow, 20 November, Tuesday

    Time Temperature Precipitation Wind Pressure Humidity
    00:00 +19°C° 0 mm 4 mps 719 mmHg 77%
    01:00 +19°C° 0 mm 3 mps 718 mmHg 78%
    02:00 +19°C° 0 mm 3 mps 718 mmHg 79%
    03:00 +18°C° 0 mm 3 mps 718 mmHg 80%
    04:00 +18°C° 0 mm 3 mps 718 mmHg 81%
    05:00 +18°C° 0 mm 3 mps 718 mmHg 81%
    06:00 +18°C° 0 mm 3 mps 718 mmHg 82%
    07:00 +20°C° 0 mm 4 mps 718 mmHg 77%
    08:00 +22°C° 0 mm 4 mps 719 mmHg 72%
    09:00 +25°C° 0 mm 4 mps 719 mmHg 66%
    10:00 +26°C° 0 mm 4 mps 719 mmHg 62%
    11:00 +28°C° 0 mm 4 mps 719 mmHg 59%
    12:00 +30°C° 0 mm 4 mps 719 mmHg 55%
    13:00 +30°C° 0 mm 4 mps 719 mmHg 56%
    14:00 +30°C° 0 mm 4 mps 718 mmHg 58%
    15:00 +29°C° 0 mm 4 mps 717 mmHg 60%
    16:00 +29°C° 0.1 mm 4 mps 717 mmHg 63%
    17:00 +28°C° 0.1 mm 4 mps 717 mmHg 66%
    18:00 +27°C° 0.1 mm 4 mps 717 mmHg 69%
    19:00 +26°C° 0 mm 4 mps 717 mmHg 72%
    20:00 +23°C° 0 mm 4 mps 718 mmHg 74%
    21:00 +22°C° 0 mm 4 mps 719 mmHg 77%
    22:00 +21°C° 0 mm 4 mps 719 mmHg 78%
    23:00 +21°C° 0 mm 4 mps 719 mmHg 78%

    21 November, Wednesday

    Time Temperature Precipitation Wind Pressure Humidity
    00:00 +20°C° 0 mm 4 mps 719 mmHg 79%
    01:00 +20°C° 0 mm 4 mps 719 mmHg 79%
    02:00 +19°C° 0 mm 4 mps 718 mmHg 80%
    03:00 +19°C° 0 mm 3 mps 718 mmHg 81%
    04:00 +19°C° 0 mm 3 mps 718 mmHg 82%
    05:00 +19°C° 0 mm 3 mps 718 mmHg 82%
    06:00 +19°C° 0 mm 3 mps 718 mmHg 83%
    07:00 +21°C° 0 mm 4 mps 719 mmHg 77%
    08:00 +23°C° 0 mm 4 mps 719 mmHg 72%
    09:00 +26°C° 0 mm 5 mps 720 mmHg 67%
    10:00 +27°C° 0 mm 5 mps 719 mmHg 65%
    11:00 +28°C° 0 mm 4 mps 719 mmHg 63%
    12:00 +29°C° 0 mm 4 mps 719 mmHg 61%
    13:00 +29°C° 0.1 mm 4 mps 718 mmHg 60%
    14:00 +30°C° 0.1 mm 4 mps 718 mmHg 59%
    15:00 +30°C° 0.1 mm 4 mps 717 mmHg 59%
    16:00 +30°C° 0.1 mm 3 mps 716 mmHg 62%
    17:00 +29°C° 0.1 mm 3 mps 716 mmHg 64%
    18:00 +29°C° 0.1 mm 2 mps 716 mmHg 67%
    19:00 +27°C° 0 mm 3 mps 716 mmHg 71%
    20:00 +26°C° 0 mm 3 mps 717 mmHg 75%
    21:00 +25°C° 0 mm 3 mps 717 mmHg 78%
    22:00 +23°C° 0 mm 4 mps 717 mmHg 79%
    23:00 +23°C° 0 mm 4 mps 717 mmHg 80%

    22 November, Thursday

    Time Temperature Precipitation Wind Pressure Humidity
    00:00 +22°C° 0 mm 4 mps 717 mmHg 81%
    01:00 +21°C° 0 mm 4 mps 717 mmHg 83%
    02:00 +21°C° 0 mm 4 mps 717 mmHg 85%
    03:00 +20°C° 0 mm 3 mps 716 mmHg 87%
    04:00 +20°C° 0 mm 3 mps 717 mmHg 88%
    05:00 +20°C° 0 mm 3 mps 717 mmHg 89%
    06:00 +20°C° 0 mm 3 mps 717 mmHg 89%
    07:00 +22°C° 0 mm 3 mps 717 mmHg 83%
    08:00 +25°C° 0 mm 3 mps 718 mmHg 77%
    09:00 +27°C° 0 mm 3 mps 718 mmHg 71%
    10:00 +28°C° 0.1 mm 3 mps 718 mmHg 68%
    11:00 +29°C° 0.1 mm 2 mps 718 mmHg 65%
    12:00 +30°C° 0.1 mm 2 mps 718 mmHg 62%
    13:00 +31°C° 0.4 mm 2 mps 717 mmHg 59%
    14:00 +32°C° 0.4 mm 2 mps 717 mmHg 57%
    15:00 +32°C° 0.4 mm 2 mps 716 mmHg 54%
    16:00 +31°C° 0.2 mm 2 mps 716 mmHg 59%
    17:00 +30°C° 0.2 mm 3 mps 716 mmHg 63%
    18:00 +29°C° 0.2 mm 3 mps 715 mmHg 67%
    19:00 +28°C° 0.2 mm 3 mps 716 mmHg 73%
    20:00 +26°C° 0.2 mm 4 mps 716 mmHg 78%
    21:00 +25°C° 0.2 mm 4 mps 717 mmHg 84%
    22:00 +23°C° 0 mm 4 mps 717 mmHg 85%
    23:00 +23°C° 0 mm 4 mps 717 mmHg 87%

    23 November, Friday

    Time Temperature Precipitation Wind Pressure Humidity
    00:00 +22°C° 0 mm 4 mps 717 mmHg 89%
    01:00 +22°C° 0 mm 4 mps 717 mmHg 89%
    02:00 +22°C° 0 mm 4 mps 716 mmHg 90%
    03:00 +21°C° 0 mm 3 mps 716 mmHg 91%
    04:00 +21°C° 0 mm 3 mps 716 mmHg 91%
    05:00 +21°C° 0 mm 3 mps 717 mmHg 92%
    06:00 +21°C° 0 mm 2 mps 717 mmHg 92%
    07:00 +22°C° 0 mm 3 mps 718 mmHg 86%
    08:00 +25°C° 0 mm 3 mps 718 mmHg 81%
    09:00 +26°C° 0 mm 3 mps 719 mmHg 75%
    10:00 +27°C° 0.1 mm 3 mps 719 mmHg 71%
    11:00 +28°C° 0.1 mm 3 mps 718 mmHg 67%
    12:00 +29°C° 0.1 mm 3 mps 718 mmHg 63%
    13:00 +30°C° 0.4 mm 3 mps 718 mmHg 61%
    14:00 +31°C° 0.4 mm 3 mps 717 mmHg 59%
    15:00 +31°C° 0.4 mm 2 mps 716 mmHg 57%
    16:00 +31°C° 0.1 mm 2 mps 716 mmHg 60%
    17:00 +30°C° 0.1 mm 1 mps 716 mmHg 62%
    18:00 +30°C° 0.1 mm 1 mps 715 mmHg 65%
    19:00 +28°C° 0.1 mm 1 mps 716 mmHg 69%
    20:00 +27°C° 0.1 mm 1 mps 716 mmHg 73%
    21:00 +26°C° 0.1 mm 2 mps 716 mmHg 77%
    22:00 +25°C° 0.1 mm 2 mps 716 mmHg 80%
    23:00 +25°C° 0.1 mm 2 mps 717 mmHg 83%
    Show more